Other Public Products
Issued by NWS Grand Forks, ND

Home | Current Version | Previous Version | Text Only | Print | Product List | Glossary Off
Versions: 1 2 3 4 5 6 7 8 9 10 11 12 13 14 15 16 17 18 19 20 21 22 23 24 25 26 27 28 29 30 31 32 33 34 35 36 37 38 39 40 41 42 43 44 45 46 47 48 49 50

000
FPUS83 KFGF 182131
OPUFGF
PRAIRIE TO PINES WEATHER ROUNDUP
NATIONAL WEATHER SERVICE EASTERN NORTH DAKOTA/GRAND FORKS ND
300 PM CST SUN FEB 18 2018

 **SATELLITE DATA USED TO AUGMENT SKY COVER AT AUTOMATED STATIONS**
 *****  WEATHER ACROSS EASTERN NORTH DAKOTA  *****

CITY           SKY/WX    TMP DP  RH WIND       PRES   REMARKS
GRAND FORKS    LGT SNOW  14   9  80 N24       29.85R VSB 1   WCI  -5
GRND FORKS AFB CLOUDY    12   7  79 NE21      29.88R BLWGSNOWWCI  -6
GRND FORKS NWS NOT AVBL
BUXTON           N/A     13  13  99 N20G33      N/A  WCI  -5
DEVILS LAKE    FAIR       9   3  78 N20       29.88R WCI -11
FARGO          FAIR      17  13  84 N21G30    29.75R FOG     WCI   0
WAHPETON ARPT  CLOUDY    23  16  74 N16G23    29.70R WCI  10
$$

 *****  WEATHER ACROSS CENTRAL AND WESTERN NORTH DAKOTA  *****

CITY           SKY/WX    TMP DP  RH WIND       PRES   REMARKS
JAMESTOWN      LGT SNOW  13   8  81 N25       29.78R WCI  -7
BISMARCK       CLOUDY    13   6  74 N15G24    29.85R WCI  -3
MINOT          FAIR      11   0  61 NW17      29.92R WCI  -6
MINOT AFB      FAIR      10  -1  62 N14       29.92R WCI  -6
GARRISON         N/A     10   2  69 N12G17    29.89R WCI  -5
WILLISTON      FAIR      10   0  63 N10       29.98R WCI  -4
DICKINSON      LGT SNOW   8   1  73 N15       29.82R WCI  -9
HETTINGER      CLOUDY     8   1  73 N18       29.80S HAZE    WCI -11
$$

 *****  OTHER OBSERVATIONS NORTHEAST NORTH DAKOTA  *****

CITY           SKY/WX    TMP DP  RH WIND       PRES   REMARKS
WALHALLA       FAIR      12   3  67 N17       29.93S WCI  -5
LANGDON        NOT AVBL
CAVALIER         N/A     12   5  73 N18G24    29.93R WCI  -5
GRAFTON        NOT AVBL
CANDO          FAIR      10   0  61 N16G22    29.92R WCI  -7
FORT TOTTEN      N/A     12   5  74 N7        29.95  WCI   1
ROLLA          FAIR       9  -2  61 N18       29.88R WCI -10
RUGBY          NOT AVBL
 ***** THE ABOVE OBSERVATIONS ARE NON NWS ARE NOT QUALITY
        CONTROLLED AND MAY MIS-REPORT RAIN FOR SNOW...
$$

 *****  OTHER OBSERVATIONS SOUTHEAST NORTH DAKOTA *****

CITY           SKY/WX    TMP DP  RH WIND       PRES   REMARKS
COOPERSTOWN    FOG       10   9  92 N25G33    29.81R VSB 1/2 WCI -10
VALLEY CITY    NOT AVBL
OAKES            N/A     16  12  86 N22G33    29.73R WCI  -2
GWINNER          N/A     18  14  86 N22G30    29.72R HAZE    WCI   0
SHEYENNE NWR     N/A     18  15  86 N17       29.95S WCI   3
BUFFALO          N/A     13  10  87 SE25        N/A  WCI  -7
WYNDMERE       NOT AVBL
 ***** THE ABOVE OBSERVATIONS ARE NON NWS ARE NOT QUALITY
       CONTROLLED AND MAY MIS-REPORT RAIN FOR SNOW...
$$

  *****  WEATHER ACROSS NORTHERN MINNESOTA  *****

CITY           SKY/WX    TMP DP  RH WIND       PRES   REMARKS
FLAG ISLAND    PTSUNNY    9   3  78 N10       29.90R WCI  -6
WARROAD        PTSUNNY   10   5  79 NE15      29.88R HAZE    WCI  -6
ROSEAU         FAIR      12   7  79 NE15      29.87  WCI  -4
HALLOCK        FAIR      16   7  67 N20       29.90R WCI  -1
THF RVR FALLS  LGT SNOW  14   7  73 N20       29.81R WCI  -3
HALSTAD        NOT AVBL
FOSSTON        LGT SNOW  18   9  68 N14       29.75S WCI   4
BAUDETTE       CLOUDY    11   4  73 NE14      29.82F WCI  -5
WASKISH        CLOUDY    14   9  79 NE9G22    29.79S WCI   2
CROOKSTON      FAIR      14   9  79 N18G24    29.84R WCI  -3
$$
  *****  WEATHER ACROSS CENTRAL AND WEST MINNESOTA  *****

CITY           SKY/WX    TMP DP  RH WIND       PRES   REMARKS
BEMIDJI        FLURRIES  17  12  81 N10       29.72R WCI   5
PARK RAPIDS    CLOUDY    19  13  77 NE10G21   29.67R WCI   7
WADENA         FAIR      19  14  79 NE10G17   29.64R WCI   8
DETROIT LAKES  FAIR      23  16  74 NE12      29.68R WCI  12
MOORHEAD       PTSUNNY   19  12  73 N22       29.74R WCI   3
FERGUS FALLS   FAIR      21  16  79 NE12G20   29.65R WCI   9
ELBOW LAKE     FAIR      24  17  72 NE13G21   29.61R WCI  13
MORRIS MN      FAIR      37  21  52 N17       29.57R
STAPLES        PTSUNNY   21  12  68 N10       29.64R WCI  10
WHEATON        FAIR      27  16  63 N20G26    29.66R WCI  13
$$
  *****  WEATHER ELSEWHERE ACROSS MINNESOTA  *****

CITY           SKY/WX    TMP DP  RH WIND       PRES   REMARKS
DULUTH         LGT SNOW  22  19  89 E14       29.66S FOG     WCI   9
INTRNTL FALLS  LGT SNOW  11   7  84 NE12      29.83S FOG     WCI  -3
ELY            LGT SNOW  16  10  79 NE10      29.74F WCI   3
CLOQUET        LGT SNOW  21  18  86 E7        29.66S WCI  13
BRAINERD       CLOUDY    27  13  55 N10       29.62S WCI  17
HIBBING        LGT SNOW  18  14  84 NE7       29.69F VSB 3/4 WCI   9
ALEXANDRIA     PTSUNNY   30  18  60 N14       29.58R WCI  19
SAINT CLOUD    FAIR      41  29  62 S12       29.56S
MINNEAPOLIS    CLOUDY    45  31  58 S17G30    29.62F
$$

  *****  WEATHER ACROSS SOUTH DAKOTA  *****

CITY           SKY/WX    TMP DP  RH WIND       PRES   REMARKS
SIOUX FALLS    PTSUNNY   44  30  57 SW16G22   29.53S
BROOKINGS      FAIR      43  28  55 W13       29.51R
WATERTOWN      FAIR      34  24  67 N17       29.55R WCI  23
HURON          FAIR      30  22  72 N22G30    29.60R WCI  17
SISSETON         N/A     24  18  77 N25       29.63R WCI   8
ABERDEEN       CLOUDY    22  15  75 N22G30    29.69R WCI   6
MITCHELL       FAIR      35  29  78 NW23      29.59R WCI  23
PIERRE         CLOUDY    20  17  88 N23       29.68R FOG     WCI   3
MOBRIDGE       LGT SNOW  19  11  70 N22G31    29.74R WCI   2
RAPID CITY     SNOW      11   7  84 N33G47    29.67R VSB 1/2 WCI -12
$$

  *****  SOME WEATHER IN NEARBY STATES *****

CITY           SKY/WX    TMP DP  RH WIND       PRES   REMARKS
GLASGOW MT     FAIR       7  -1  70 N12       30.00R WCI  -8
GREAT FALLS MT CLOUDY     4  -2  76 N13       29.93S WCI -13
CHEYENNE WY    FAIR      59  11  15 W26G36    29.44F
SCOTTSBLUFF NE FAIR      53  28  38 NE22      29.43F
OMAHA NE       PTSUNNY   55  30  38 S22G40    29.58F
DES MOINES IA  CLOUDY    52  26  36 S25G35    29.68F
DAVENPORT IA   FAIR      42  31  64 SE21G32   29.92F
CHICAGO IL     PTSUNNY   37  26  64 S16       30.07F
EAU CLAIRE WI  FAIR      38  26  62 S18G25    29.70R
LA CROSSE WI   FAIR      40  27  59 S23G31    29.75F
$$

  *****  SOME NATIONAL WEATHER *****

CITY           SKY/WX    TMP DP  RH WIND       PRES   REMARKS
LA GUARDIA NY  PTSUNNY   44  24  45 NW10      30.37R
RALEIGH NC     FAIR      60  34  37 SE6       30.34S
ATLANTA GA     PTSUNNY   63  53  70 S3        30.22F
NEW ORLEANS LA PTSUNNY   79  65  62 SE13      30.12F
OKLAHOMA CITY  CLOUDY    54  45  71 S20G28    29.82F
ALBUQUERQUE NM PTSUNNY   60  38  43 S13       29.83F
SALT LAKE CITY CLOUDY    42  31  64 N22       29.56R
LOS ANGELES CA FAIR      62  51  67 W15       29.95F
BOISE ID       FAIR      38  25  59 N10       29.61S
SEATTLE WA     LGT SNOW  33  30  88 NW20G28   29.72R VSB 3/4 WCI  21
$$

*** WEATHER ACROSS MANITOBA...SASKATCHEWAN AND ONTARIO ***
                ***ONTARIO***

CITY           SKY/WX    TMP DP  RH WIND       PRES   REMARKS
GERALDTON      LGT SNOW   7   0  72 NE2       29.98F VSB 1
THUNDER BAY    SNOW       9   7  92 E13       29.93F VSB 3/8 WCI  -7
SIOUX LOOKOUT  LGT SNOW   5   0  78 CALM      29.93R
TORONTO        PTSUNNY   37  19  48 S9        30.32R
BIG TROUT LK   SUNNY    -13 -27  48 NW8       30.06F WCI -30
PICKLE LAKE    CLOUDY     3  -6  66 CALM      29.95S
DRYDEN         LGT SNOW   5   1  85 NE9       29.89F WCI  -9
KENORA         LGT SNOW   9   1  72 NE8       29.89F WCI  -4
$$
                *** MANITOBA***

CITY           SKY/WX    TMP DP  RH WIND       PRES   REMARKS
BRANDON        MOSUNNY   12  -2  52 N14       29.95S WCI  -3
DAUPHIN        MOSUNNY    9   0  66 NE15      30.02R WCI  -8
ISLAND LAKE    SUNNY    -11 -26  49 W9        30.10S WCI -29
PILOT MOUND      N/A      9   1  72 N14         N/A  WCI  -8
THE PAS        MOSUNNY   -6 -18  54 NW6       30.10R WCI -18
THOMPSON       SUNNY    -18 -36  39 W7        30.14R WCI -35
WINNIPEG       MOSUNNY   10  -2  56 NE16      29.98R WCI  -7
LYNN LAKE      SUNNY    -20 -36  43 W5        30.09R WCI -33
CHURCHILL      MOSUNNY  -33 -44  55 NW18      30.08S WCI -64
GILLAM         SUNNY    -24 -38  47 W12G18    30.12R WCI -47
$$
                ***SASKATCHEWAN***

CITY           SKY/WX    TMP DP  RH WIND       PRES   REMARKS
ESTEVAN        PTSUNNY    9  -4  56 N16       29.95F WCI  -9
KINDERSLEY     MOSUNNY    7  -2  66 NW13G20   30.01R WCI  -9
LLOYDMINSTER   PTSUNNY    3  -4  72 NW10G17   30.00S WCI -12
PRINCE ALBERT  PTSUNNY    5  -9  51 NW6       30.04S WCI  -6
REGINA         PTSUNNY    9  -2  61 SW5       29.98S WCI   0
YORKTON        SUNNY      3 -11  51 N6        30.00S WC



USA.gov is the U.S. government's official web portal to all federal, state and local government web resources and services.